[[[{"header":{"parameterUnit":"kt","parameterCategory":2,"dx":1,"dy":1,"la1":30.253999710083008,"la2":30.299108505249023,"lo1":-89.0895004272461,"lo2":-89.04439544677734,"nx":28,"ny":28,"refTime":"2022-09-20T15:00:00:Z","depth":"0","parameterNumber":2,"parameterNumberName":"U-component_of_CURRENTS"},"data":[0.5187,0.5054,0.5055,0.4854,0.478,0.4598,0.4523,0.4419,0.4371,0.421,0.4089,0.4035,0.3739,0.3197,0.2807,0.2854,0.2668,0.2533,0.2706,0.3076,0.3168,0.3255,0.2998,0.2377,0.2376,0.1693,0.1687,0.1682,0.5364,0.5327,0.5209,0.507,0.4956,0.4962,0.4833,0.4716,0.464,0.4624,0.4612,0.4469,0.4365,0.4382,0.4226,0.4067,0.4045,0.3889,0.3478,0.3546,0.4348,0.4114,0.3721,0.3721,0.3722,0.3722,0.3723,0.3723,0.5649,0.5539,0.5467,0.5335,0.5241,0.513,0.4991,0.494,0.4853,0.4752,0.4863,0.4863,0.4865,0.5272,0.5393,0.5155,0.5395,0.4954,0.4937,0.4819,0.4587,0.5568,0.5469,0.5473,0.5477,0.548,0.5483,0,0.5859,0.5862,0.5725,0.5593,0.5477,0.5327,0.5204,0.5144,0.5076,0.5024,0.5013,0.5065,0.5319,0.54,0.5732,0.591,0.5604,0.5949,0.5595,0.4911,0.4711,0.4732,0.5772,0.5621,0.5626,0.563,0.5633,0.5635,0.6192,0.6065,0.5896,0.5804,0.5716,0.5548,0.5454,0.538,0.5286,0.5209,0.5154,0.5254,0.5327,0.566,0.5871,0.6204,0.6006,0.606,0.596,0.5634,0.5628,0.5467,0.5442,0.5692,0.5685,0.5679,0.5674,0,0.6395,0.6326,0.6064,0.5895,0.5859,0.5705,0.5557,0.5438,0.5397,0.527,0.5253,0.5302,0.5465,0.5678,0.5918,0.6054,0.603,0.6339,0.6067,0.6088,0.5776,0.5722,0.5334,0.528,0.6477,0.6476,0.6475,0,0.6609,0.6422,0.6304,0.6167,0.596,0.5868,0.567,0.5597,0.5511,0.5402,0.5457,0.5417,0.5582,0.5705,0.5938,0.6141,0.6144,0.6288,0.6355,0.607,0.6049,0.5743,0.5676,0.6311,0.6309,0.6306,0.6305,0,0.6848,0.6583,0.6374,0.6293,0.6082,0.5977,0.5892,0.578,0.5704,0.5622,0.5593,0.5584,0.5627,0.5756,0.601,0.6028,0.6175,0.623,0.6343,0.6351,0.6104,0.6089,0.5586,0.6302,0.6301,0.63,0.6299,0,0.6988,0.6839,0.6565,0.635,0.6291,0.6158,0.5992,0.5891,0.5803,0.5803,0.5761,0.5815,0.5788,0.5921,0.6034,0.601,0.6183,0.6279,0.6292,0.6237,0.637,0.6331,0.6144,0.5768,0.6567,0.6567,0.6566,0,0.7256,0.6957,0.689,0.6622,0.6468,0.6463,0.6332,0.624,0.6221,0.6126,0.6149,0.6065,0.618,0.6172,0.616,0.6246,0.628,0.6233,0.6444,0.6453,0.6433,0.6284,0.5951,0.6158,0.6565,0.6565,0.6565,0,0.7449,0.7216,0.7187,0.7071,0.6936,0.6837,0.6696,0.6572,0.6492,0.6455,0.6345,0.6251,0.6323,0.6273,0.6305,0.628,0.6303,0.6383,0.6385,0.6555,0.6377,0.6303,0.63,0.6284,0.6281,0.6278,0.6564,0,0.7594,0.7457,0.736,0.7174,0.7094,0.6975,0.6943,0.6868,0.689,0.6861,0.6732,0.671,0.661,0.6591,0.6607,0.6466,0.6577,0.6573,0.6649,0.6513,0.6668,0.6668,0.6697,0.6699,0.6701,0.6702,0,0,0.7857,0.7666,0.7629,0.7477,0.7409,0.7455,0.7311,0.7264,0.7163,0.7114,0.7188,0.699,0.6964,0.6776,0.6731,0.6708,0.6771,0.6716,0.6569,0.6555,0.6541,0.668,0.6678,0.6706,0.6706,0.6707,0.6707,0,0.7895,0.7847,0.7684,0.7617,0.7533,0.7504,0.7483,0.7413,0.7391,0.7255,0.7273,0.7199,0.7052,0.6986,0.6939,0.6748,0.6856,0.6734,0.6608,0.6587,0.657,0.6554,0.6687,0.6684,0.6712,0.6712,0.6711,0,0.8051,0.797,0.7897,0.7773,0.7724,0.7607,0.7702,0.7607,0.7519,0.7562,0.7404,0.7384,0.7312,0.7156,0.7091,0.7124,0.6944,0.6952,0.694,0.6911,0.6894,0.6872,0.6853,0.711,0.7112,0.7113,0,0,0.8084,0.7946,0.7899,0.7787,0.7756,0.7726,0.768,0.7672,0.7603,0.757,0.7523,0.7454,0.7366,0.7306,0.7221,0.7066,0.7116,0.7001,0.6982,0.6967,0.6931,0.6909,0.6887,0.7119,0.7119,0.7119,0,0,0.8112,0.7997,0.8012,0.7878,0.7821,0.7755,0.768,0.7701,0.7608,0.7612,0.7602,0.7583,0.7448,0.7414,0.7489,0.7249,0.7325,0.7307,0.7273,0.7249,0.723,0.7214,0.7553,0,0,0,0,0,0.812,0.8008,0.8022,0.7999,0.7861,0.7752,0.7732,0.7714,0.7767,0.7699,0.7653,0.7689,0.7439,0.7505,0.748,0.7404,0.7189,0.7177,0.7165,0.7085,0.706,0.7039,0,0,0,0,0,0,0.8111,0.8081,0.8026,0.796,0.793,0.7755,0.7824,0.7815,0.7772,0.7776,0.7694,0.7686,0.7664,0.7518,0.7495,0.7423,0.756,0.7184,0.7174,0.7164,0.7076,0.7056,0.7038,0,0,0,0,0,0.8103,0.808,0.7864,0.796,0.7934,0.7891,0.7828,0.782,0.7776,0.7727,0.7718,0.7772,0.7662,0.7642,0.7505,0.7434,0.7576,0.7568,0.7178,0.7169,0.7162,0.7066,0,0,0,0,0,0,0.8098,0.8054,0.7858,0.785,0.8004,0.7899,0.7881,0.7825,0.7729,0.7721,0.7805,0.7809,0.766,0.7645,0.7629,0.7437,0.7589,0.758,0.7575,0.7171,0.7165,0.7159,0,0,0,0,0,0,0.8068,0.8047,0.7853,0.791,0.7907,0.7907,0.7891,0.7789,0.7728,0.781,0.7812,0.7808,0.7697,0.7646,0.7634,0.7474,0.7599,0.7591,0.7585,0.7581,0.7166,0.7161,0,0,0,0,0,0,0.8059,0.804,0.7911,0.7909,0.7907,0.7803,0.7816,0.7678,0.777,0.7813,0.778,0.7785,0.7699,0.7686,0.7637,0.7482,0.7476,0.7599,0.7593,0.7589,0.7586,0,0,0,0,0,0,0,0.8051,0.818,0.792,0.7908,0.7906,0.7775,0.7772,0.7768,0.7771,0.7775,0.7779,0.7783,0.7647,0.7637,0.7628,0.7488,0,0,0.76,0.7596,0,0,0,0,0,0,0,0,0.8188,0.8182,0.792,0.7919,0.7918,0.7775,0.7772,0.7769,0.7772,0.7775,0.7778,0.7782,0.7644,0.7637,0.7629,0,0,0,0,0,0,0,0,0,0,0,0,0,0,0,0.792,0.7919,0,0.7774,0.7772,0.777,0.7772,0.7775,0.7778,0.778,0.7642,0.7636,0.763,0,0,0,0,0,0,0,0,0,0,0,0,0,0,0,0,0,0,0,0,0,0,0,0,0,0,0,0,0,0,0,0,0,0,0,0,0,0,0,0,0,0,0,0,0,0,0,0,0,0,0,0,0,0,0,0,0,0,0,0,0,0,0,0,0,0,0,0,0]}],[{"header":{"parameterUnit":"kt","parameterCategory":2,"dx":1,"dy":1,"la1":30.253999710083008,"la2":30.299108505249023,"lo1":-89.0895004272461,"lo2":-89.04439544677734,"nx":28,"ny":28,"refTime":"2022-09-20T15:00:00:Z","depth":"0","parameterNumber":3,"parameterNumberName":"V-component_of_CURRENTS"},"data":[-0.2089,-0.1838,-0.1721,-0.1267,-0.1066,-0.0718,-0.0515,-0.0205,0.0118,0.072,0.1126,0.1404,0.1491,0.1291,0.1132,0.1092,0.0956,0.1019,0.0918,0.0759,0.0734,0.071,0.0563,0.0944,0.0943,0.0975,0.0975,0.0974,-0.2233,-0.2058,-0.1847,-0.1548,-0.1304,-0.1257,-0.0928,-0.0691,-0.026,0.015,0.0542,0.1043,0.1268,0.1317,0.1296,0.1165,0.1075,0.1068,0.0938,0.0946,0.0928,0.0801,0.1239,0.1239,0.1239,0.1239,0.1239,0.1239,-0.2419,-0.2278,-0.2063,-0.1853,-0.1666,-0.1404,-0.1202,-0.0945,-0.0611,-0.0147,0.0001,0.048,0.0719,0.106,0.1071,0.1044,0.0958,0.0917,0.0847,0.0809,0.0733,0.0684,0.1158,0.1157,0.1155,0.1154,0.1153,0,-0.2508,-0.2438,-0.2286,-0.2053,-0.1889,-0.1696,-0.1478,-0.1327,-0.1085,-0.082,-0.0399,-0.0137,0.0274,0.0574,0.0802,0.0845,0.0567,0.0705,0.0561,0.0367,0.0331,0.0365,0.018,0.064,0.0636,0.0632,0.063,0.0628,-0.2624,-0.2526,-0.2311,-0.2189,-0.2092,-0.1934,-0.1794,-0.1648,-0.1452,-0.109,-0.0903,-0.0545,-0.024,0.0197,0.0253,0.0475,0.0298,0.06,0.0286,0.0163,0.0102,0.003,0.0029,0.0579,0.0585,0.059,0.0594,0,-0.2664,-0.2563,-0.2386,-0.2198,-0.2154,-0.2047,-0.1831,-0.1678,-0.1547,-0.1261,-0.1187,-0.0961,-0.064,-0.0523,-0.0263,-0.0304,-0.0066,-0.0023,0.0067,0.0121,0.0063,-0.0031,0.0359,0.0402,0.0282,0.0287,0.0291,0,-0.2665,-0.2569,-0.2403,-0.2318,-0.2177,-0.2084,-0.1916,-0.1831,-0.1644,-0.1443,-0.1418,-0.1212,-0.1157,-0.0918,-0.0884,-0.0604,-0.0577,-0.0607,-0.0549,-0.0515,-0.0506,-0.0549,-0.0642,-0.0678,-0.0683,-0.0686,-0.069,0,-0.2686,-0.2537,-0.2411,-0.2359,-0.2176,-0.2113,-0.2033,-0.1909,-0.18,-0.1637,-0.1509,-0.1408,-0.1271,-0.1185,-0.106,-0.1195,-0.0735,-0.0898,-0.0707,-0.0695,-0.0534,-0.0519,-0.0342,-0.0695,-0.0696,-0.0698,-0.0699,0,-0.2665,-0.2561,-0.2438,-0.2247,-0.2219,-0.2165,-0.2019,-0.1959,-0.1822,-0.1767,-0.1692,-0.1651,-0.1528,-0.1644,-0.1394,-0.1523,-0.1417,-0.1341,-0.1321,-0.1237,-0.1272,-0.0755,-0.0502,-0.0626,-0.1077,-0.1082,-0.1086,0,-0.2655,-0.2534,-0.2471,-0.2364,-0.2286,-0.2233,-0.217,-0.2103,-0.2043,-0.1926,-0.1911,-0.1821,-0.1934,-0.1879,-0.183,-0.1709,-0.1586,-0.1808,-0.1432,-0.1418,-0.1342,-0.1159,-0.1067,-0.0596,-0.115,-0.1143,-0.1138,0,-0.2656,-0.2488,-0.2491,-0.2402,-0.234,-0.2307,-0.2262,-0.2182,-0.2105,-0.2102,-0.1978,-0.2002,-0.198,-0.1962,-0.1962,-0.1889,-0.1679,-0.1891,-0.1886,-0.1654,-0.1328,-0.1253,-0.1201,-0.1719,-0.1714,-0.171,-0.1189,0,-0.2507,-0.2464,-0.2464,-0.2394,-0.2366,-0.2339,-0.2294,-0.2264,-0.2243,-0.2199,-0.2139,-0.2131,-0.2071,-0.209,-0.2098,-0.1991,-0.1926,-0.199,-0.1974,-0.1922,-0.1699,-0.1659,-0.2136,-0.2137,-0.2137,-0.2137,0,0,-0.2507,-0.2463,-0.2446,-0.2413,-0.2378,-0.2358,-0.2321,-0.2299,-0.2257,-0.2219,-0.2244,-0.2174,-0.2182,-0.2107,-0.2105,-0.2124,-0.2011,-0.2107,-0.1978,-0.196,-0.1944,-0.1729,-0.169,-0.2138,-0.2138,-0.2139,-0.2139,0,-0.2454,-0.2458,-0.2447,-0.2415,-0.2377,-0.2346,-0.2347,-0.2308,-0.2282,-0.2254,-0.2232,-0.221,-0.2201,-0.216,-0.2146,-0.2134,-0.2047,-0.2148,-0.2098,-0.1986,-0.1968,-0.1952,-0.1737,-0.1702,-0.214,-0.214,-0.214,0,-0.2414,-0.2391,-0.2395,-0.2371,-0.2351,-0.2321,-0.231,-0.23,-0.2264,-0.2256,-0.222,-0.2215,-0.2198,-0.2174,-0.2171,-0.2171,-0.2047,-0.2163,-0.2161,-0.2133,-0.2016,-0.1997,-0.1981,-0.2187,-0.2187,-0.2187,0,0,-0.2377,-0.2372,-0.2342,-0.2364,-0.2355,-0.2318,-0.2309,-0.2282,-0.2261,-0.2249,-0.223,-0.2215,-0.2198,-0.219,-0.2181,-0.2174,-0.2082,-0.2167,-0.2165,-0.2163,-0.2135,-0.2019,-0.2001,-0.2187,-0.2187,-0.2187,0,0,-0.2364,-0.2332,-0.2315,-0.2343,-0.2313,-0.2278,-0.2281,-0.2258,-0.2235,-0.2235,-0.2212,-0.2208,-0.2198,-0.2198,-0.2199,-0.2174,-0.2185,-0.2185,-0.2162,-0.2159,-0.2157,-0.2121,-0.2185,0,0,0,0,0,-0.2305,-0.2336,-0.2321,-0.2322,-0.2307,-0.2287,-0.2281,-0.2248,-0.2242,-0.2234,-0.2213,-0.2211,-0.2184,-0.2184,-0.2184,-0.2171,-0.2187,-0.2187,-0.2187,-0.2157,-0.2154,-0.2152,0,0,0,0,0,0,-0.2305,-0.2308,-0.2319,-0.2293,-0.2289,-0.2287,-0.2261,-0.2251,-0.2241,-0.2236,-0.2213,-0.221,-0.219,-0.2184,-0.2184,-0.2171,-0.2185,-0.2187,-0.2187,-0.2187,-0.2156,-0.2154,-0.2152,0,0,0,0,0,-0.2305,-0.2307,-0.23,-0.229,-0.2287,-0.225,-0.226,-0.2251,-0.2238,-0.2217,-0.2212,-0.2216,-0.2191,-0.219,-0.2184,-0.2171,-0.2184,-0.2185,-0.2187,-0.2187,-0.2187,-0.2155,0,0,0,0,0,0,-0.2305,-0.2285,-0.2297,-0.2294,-0.2287,-0.2248,-0.2243,-0.2252,-0.2219,-0.2214,-0.222,-0.2217,-0.2191,-0.2191,-0.2191,-0.217,-0.2184,-0.2184,-0.2184,-0.2187,-0.2187,-0.2187,0,0,0,0,0,0,-0.2284,-0.2283,-0.2295,-0.2292,-0.2288,-0.2246,-0.2242,-0.2248,-0.2221,-0.2223,-0.222,-0.2219,-0.2208,-0.2191,-0.2191,-0.2198,-0.2184,-0.2184,-0.2184,-0.2184,-0.2187,-0.2187,0,0,0,0,0,0,-0.2283,-0.2281,-0.2293,-0.2289,-0.2285,-0.224,-0.225,-0.2244,-0.2198,-0.2226,-0.2196,-0.2195,-0.221,-0.2208,-0.2192,-0.2199,-0.2199,-0.2184,-0.2184,-0.2184,-0.2184,0,0,0,0,0,0,0,-0.2281,-0.2305,-0.2323,-0.2287,-0.2283,-0.2263,-0.2261,-0.226,-0.2198,-0.2197,-0.2196,-0.2195,-0.2183,-0.2183,-0.2183,-0.22,0,0,-0.2184,-0.2184,0,0,0,0,0,0,0,0,-0.2304,-0.2305,-0.2323,-0.2323,-0.2322,-0.2263,-0.2261,-0.226,-0.2197,-0.2197,-0.2196,-0.2196,-0.2183,-0.2183,-0.2183,0,0,0,0,0,0,0,0,0,0,0,0,0,0,0,-0.2323,-0.2323,0,-0.2262,-0.2261,-0.226,-0.2197,-0.2197,-0.2196,-0.2196,-0.2183,-0.2183,-0.2183,0,0,0,0,0,0,0,0,0,0,0,0,0,0,0,0,0,0,0,0,0,0,0,0,0,0,0,0,0,0,0,0,0,0,0,0,0,0,0,0,0,0,0,0,0,0,0,0,0,0,0,0,0,0,0,0,0,0,0,0,0,0,0,0,0,0,0,0,0]}]],[[{"header":{"parameterUnit":"kt","parameterCategory":2,"dx":1,"dy":1,"la1":30.253999710083008,"la2":30.299108505249023,"lo1":-89.0895004272461,"lo2":-89.04439544677734,"nx":28,"ny":28,"refTime":"2022-09-20T15:00:00:Z","depth":"2","parameterNumber":2,"parameterNumberName":"U-component_of_CURRENTS"},"data":[0.347,0.3445,0.3462,0.3307,0.3315,0.3094,0.2993,0.2588,0.2381,0.2026,0.1836,0.1808,0.1961,0.1475,0.1432,0.1303,0.1758,0.1222,0.2209,0.2472,0.2574,0.286,0.2413,0,0,0,0,0,0.3551,0.362,0.3626,0.3614,0.3539,0.365,0.3538,0.3275,0.3019,0.2968,0.2822,0.2364,0.2135,0.2289,0.1952,0.1881,0.1966,0.1921,0.2063,0.2173,0.2274,0.1918,0.1178,0.1177,0.1176,0.1174,0,0,0.3726,0.3738,0.3809,0.382,0.3837,0.3794,0.3673,0.3624,0.3524,0.3349,0.3558,0.3331,0.3297,0.2926,0.2948,0.2914,0.3197,0.3123,0.3173,0.3237,0.2917,0.2749,0.2446,0.2452,0.2457,0.2462,0.2466,0,0.3807,0.3903,0.3925,0.3956,0.3974,0.3946,0.3947,0.3911,0.393,0.3905,0.3909,0.3911,0.3927,0.3703,0.371,0.3752,0.4038,0.3851,0.4801,0.3681,0.3541,0.3557,0.3594,0.3434,0.3446,0.3455,0.3461,0.3466,0.3926,0.3948,0.4024,0.403,0.4054,0.4069,0.4049,0.4066,0.4045,0.4104,0.4101,0.424,0.424,0.4441,0.4364,0.4512,0.4864,0.4145,0.3955,0.468,0.4695,0.4691,0.4685,0.3597,0.358,0.3567,0.3556,0,0.398,0.4024,0.403,0.4057,0.4071,0.4083,0.4068,0.4055,0.4106,0.4119,0.4152,0.4241,0.4422,0.4611,0.4931,0.4857,0.5011,0.4992,0.4504,0.4442,0.4762,0.4741,0.4795,0.4782,0.4771,0.4761,0.4754,0,0.4006,0.4021,0.4063,0.4067,0.407,0.4063,0.4074,0.4087,0.4112,0.4114,0.4205,0.4242,0.4471,0.4627,0.4832,0.4888,0.5128,0.4874,0.4889,0.4496,0.4427,0.5182,0.5163,0.5323,0.532,0.5318,0.5315,0,0.4028,0.4025,0.4039,0.4036,0.4015,0.4034,0.4035,0.4058,0.4053,0.415,0.4183,0.4321,0.4413,0.4615,0.4801,0.48,0.5091,0.5114,0.4892,0.4871,0.4504,0.4435,0.5312,0.5312,0.5311,0.531,0.5309,0,0.4027,0.4027,0.4032,0.4008,0.4007,0.4013,0.4026,0.4027,0.408,0.4127,0.4205,0.4274,0.4392,0.4422,0.4687,0.4613,0.4775,0.4883,0.4899,0.4488,0.4475,0.427,0.4242,0.5091,0.5088,0.5085,0.5082,0,0.4048,0.4043,0.4022,0.4021,0.4011,0.4022,0.4014,0.4035,0.4086,0.4141,0.4213,0.4286,0.4323,0.4387,0.4463,0.4605,0.4713,0.457,0.4858,0.4867,0.4445,0.4491,0.4018,0.4228,0.5043,0.5047,0.505,0,0.4046,0.4031,0.4044,0.4042,0.4044,0.4033,0.4048,0.4051,0.4083,0.4164,0.4205,0.4281,0.4347,0.4364,0.4409,0.4482,0.4655,0.4542,0.4546,0.4646,0.4926,0.4497,0.4483,0.4682,0.4685,0.4687,0.5019,0,0.402,0.4034,0.4041,0.4029,0.4026,0.4041,0.4033,0.4079,0.4142,0.4152,0.4248,0.4298,0.435,0.439,0.4394,0.4482,0.4543,0.4525,0.4472,0.4554,0.4697,0.4721,0.4425,0.4424,0.4424,0.4423,0,0,0.4038,0.4019,0.4018,0.4013,0.4009,0.4044,0.4037,0.4051,0.4094,0.4118,0.4171,0.4272,0.4303,0.4327,0.4364,0.4391,0.4482,0.4362,0.4519,0.453,0.454,0.4677,0.4701,0.4423,0.4422,0.4422,0.4422,0,0.3991,0.4018,0.4016,0.401,0.4025,0.4003,0.4037,0.404,0.4077,0.4127,0.4162,0.4238,0.4288,0.4289,0.4296,0.4381,0.4423,0.443,0.4421,0.4513,0.4524,0.4534,0.4671,0.4693,0.4421,0.4421,0.4421,0,0.3971,0.3958,0.3958,0.3947,0.395,0.3934,0.3952,0.3987,0.3993,0.4019,0.4088,0.4141,0.416,0.4208,0.4249,0.4222,0.4368,0.4295,0.43,0.4273,0.4365,0.4378,0.439,0.4228,0.4227,0.4226,0,0,0.3948,0.3949,0.3914,0.3933,0.3935,0.3933,0.3944,0.3962,0.3983,0.4017,0.4049,0.4101,0.4133,0.4162,0.4191,0.4229,0.4272,0.4268,0.4277,0.4284,0.4262,0.4355,0.4369,0.4222,0.4222,0.4222,0,0,0.3926,0.3884,0.39,0.3907,0.3902,0.3854,0.3887,0.391,0.3968,0.4015,0.4014,0.4025,0.4117,0.4119,0.4071,0.4172,0.4141,0.415,0.4142,0.4153,0.4163,0.4122,0.4026,0,0,0,0,0,0.3864,0.3877,0.3891,0.3889,0.3865,0.3839,0.3837,0.3862,0.3915,0.3945,0.3998,0.3986,0.4097,0.4053,0.4056,0.4091,0.4174,0.4183,0.4191,0.4193,0.4205,0.4215,0,0,0,0,0,0,0.3862,0.3858,0.389,0.3838,0.3833,0.3837,0.3844,0.385,0.3913,0.3925,0.3973,0.3982,0.3961,0.405,0.4053,0.4087,0.4024,0.4178,0.4185,0.4191,0.4197,0.4207,0.4216,0,0,0,0,0,0.3861,0.3857,0.3824,0.3838,0.3834,0.3854,0.3847,0.3853,0.3927,0.3902,0.3916,0.396,0.3958,0.3967,0.4052,0.4086,0.4022,0.4023,0.4182,0.4188,0.4193,0.4202,0,0,0,0,0,0,0.386,0.3855,0.3823,0.3821,0.3872,0.3858,0.386,0.3855,0.3904,0.3914,0.388,0.3887,0.3954,0.3962,0.3969,0.4088,0.402,0.4022,0.4022,0.4187,0.4191,0.4195,0,0,0,0,0,0,0.3857,0.3854,0.3822,0.3863,0.3867,0.3861,0.3863,0.3865,0.3907,0.3881,0.3886,0.3883,0.3974,0.3958,0.3964,0.3962,0.4019,0.402,0.4021,0.4022,0.419,0.4194,0,0,0,0,0,0,0.3856,0.3853,0.3864,0.3866,0.3869,0.3854,0.3866,0.3862,0.3885,0.388,0.3894,0.3898,0.3971,0.3976,0.396,0.3955,0.396,0.4019,0.402,0.402,0.4021,0,0,0,0,0,0,0,0.3854,0.3875,0.3832,0.3869,0.3872,0.3808,0.3807,0.3807,0.3886,0.3889,0.3893,0.3896,0.4012,0.4014,0.4015,0.3949,0,0,0.4019,0.4019,0,0,0,0,0,0,0,0,0.3876,0.3875,0.3832,0.3832,0.3832,0.3808,0.3807,0.3807,0.3886,0.3889,0.3892,0.3895,0.4013,0.4014,0.4015,0,0,0,0,0,0,0,0,0,0,0,0,0,0,0,0.3832,0.3832,0,0.3807,0.3807,0.3807,0.3887,0.3889,0.3891,0.3894,0.4013,0.4014,0.4015,0,0,0,0,0,0,0,0,0,0,0,0,0,0,0,0,0,0,0,0,0,0,0,0,0,0,0,0,0,0,0,0,0,0,0,0,0,0,0,0,0,0,0,0,0,0,0,0,0,0,0,0,0,0,0,0,0,0,0,0,0,0,0,0,0,0,0,0,0]}],[{"header":{"parameterUnit":"kt","parameterCategory":2,"dx":1,"dy":1,"la1":30.253999710083008,"la2":30.299108505249023,"lo1":-89.0895004272461,"lo2":-89.04439544677734,"nx":28,"ny":28,"refTime":"2022-09-20T15:00:00:Z","depth":"2","parameterNumber":3,"parameterNumberName":"V-component_of_CURRENTS"},"data":[-0.0248,-0.0166,-0.012,0.0051,0.007,0.0291,0.0488,0.0819,0.1054,0.1383,0.1462,0.1636,0.1334,0.0978,0.0683,0.0407,0.037,0.0366,0.0669,0.0457,0.0463,0.026,0.0295,0,0,0,0,0,-0.031,-0.0298,-0.0243,-0.0149,-0.005,-0.008,0.0191,0.0427,0.0858,0.1051,0.1362,0.1271,0.1287,0.1068,0.0606,0.0474,0.0344,0.043,0.0226,0.0229,0.0232,0.0252,0.0201,0.0201,0.0201,0.0201,0,0,-0.0401,-0.037,-0.032,-0.0278,-0.0231,-0.0089,0.0063,0.0266,0.0536,0.0879,0.0952,0.1233,0.1072,0.1084,0.0929,0.0643,0.0672,0.0527,0.0519,0.0514,0.0555,0.0569,0.0582,0.0584,0.0586,0.0587,0.0588,0,-0.0387,-0.0425,-0.0353,-0.0319,-0.0285,-0.0182,-0.0088,0.0012,0.0201,0.0374,0.0669,0.0878,0.0933,0.0948,0.0915,0.0841,0.0587,0.0583,0.0702,0.0312,0.0312,0.0329,0.0336,0.0273,0.0274,0.0274,0.0274,0.0274,-0.0405,-0.0388,-0.031,-0.0278,-0.024,-0.0207,-0.0147,-0.0032,0.0078,0.0278,0.0368,0.0505,0.0752,0.0859,0.076,0.0741,0.0731,0.0582,0.051,0.0615,0.0636,0.0636,0.0636,0.0277,0.0277,0.0277,0.0276,0,-0.0398,-0.0319,-0.024,-0.0121,-0.0108,-0.0105,0.0017,0.0074,0.0134,0.0253,0.0265,0.0432,0.0543,0.0588,0.0591,0.0573,0.0589,0.0597,0.0443,0.0452,0.0611,0.0616,0.0615,0.0619,0.0623,0.0626,0.0629,0,-0.0289,-0.0255,-0.0119,-0.0083,-0.0059,0.008,0.009,0.0157,0.0244,0.0337,0.0377,0.0465,0.0464,0.0524,0.0485,0.0538,0.0481,0.0517,0.054,0.0395,0.0396,0.044,0.0447,0.0385,0.0385,0.0386,0.0386,0,-0.0253,-0.0072,-0.0033,0.0025,0.022,0.0202,0.0259,0.034,0.0391,0.0425,0.0457,0.0476,0.0493,0.0449,0.0491,0.0456,0.0491,0.0461,0.0532,0.054,0.0408,0.041,0.0387,0.0387,0.0387,0.0387,0.0387,0,-0.0112,-0.0004,0.0072,0.0246,0.028,0.0308,0.0365,0.0419,0.0485,0.0492,0.05,0.0532,0.0542,0.0519,0.051,0.0517,0.0468,0.0477,0.0476,0.0614,0.0661,0.0475,0.0416,0.0473,0.0474,0.0474,0.0475,0,-0.0099,0.0041,0.0167,0.0252,0.0343,0.0435,0.0467,0.0534,0.0555,0.0574,0.059,0.0595,0.0586,0.0567,0.0552,0.0588,0.0537,0.0571,0.0533,0.0532,0.0665,0.0644,0.0487,0.043,0.0486,0.0485,0.0484,0,-0.0065,0.0177,0.0171,0.0245,0.04,0.0474,0.0498,0.0587,0.0584,0.0596,0.0594,0.0604,0.0595,0.0605,0.0627,0.0614,0.0558,0.059,0.0591,0.0568,0.05,0.064,0.0646,0.0558,0.0557,0.0556,0.0492,0,0.0111,0.0181,0.0207,0.036,0.0433,0.0483,0.0605,0.061,0.059,0.0645,0.0626,0.0655,0.0657,0.0657,0.0671,0.0648,0.0629,0.0656,0.0666,0.0631,0.0607,0.0601,0.069,0.0691,0.0692,0.0692,0,0,0.0089,0.0204,0.0324,0.0413,0.0468,0.0562,0.0619,0.0665,0.0741,0.0736,0.0699,0.0711,0.0715,0.0741,0.0721,0.0732,0.0703,0.0687,0.0649,0.0644,0.064,0.0616,0.0608,0.0693,0.0693,0.0693,0.0694,0,0.0194,0.0252,0.0302,0.0402,0.0527,0.0615,0.0614,0.0738,0.0731,0.0742,0.0753,0.0741,0.0727,0.0761,0.077,0.0742,0.0716,0.0709,0.0662,0.0654,0.0649,0.0644,0.0619,0.0612,0.0695,0.0695,0.0695,0,0.0255,0.0366,0.0387,0.0556,0.0625,0.0713,0.0752,0.0798,0.0825,0.0842,0.0805,0.081,0.0826,0.0814,0.0791,0.0794,0.073,0.0752,0.0749,0.0737,0.073,0.0723,0.0718,0.0794,0.0794,0.0794,0,0,0.0325,0.038,0.0563,0.059,0.0642,0.0745,0.0781,0.0817,0.0863,0.0854,0.0848,0.0825,0.0833,0.0807,0.0818,0.0797,0.0794,0.0764,0.0759,0.0755,0.0742,0.0733,0.0727,0.0796,0.0796,0.0796,0,0,0.0354,0.0542,0.0571,0.063,0.0739,0.0892,0.0882,0.0912,0.0906,0.085,0.087,0.0865,0.0824,0.0824,0.084,0.0796,0.0815,0.0813,0.0793,0.0788,0.0783,0.0768,0.0846,0,0,0,0,0,0.0525,0.0537,0.0562,0.059,0.0757,0.0895,0.0914,0.0947,0.0897,0.0901,0.0879,0.0865,0.0841,0.0856,0.0856,0.0816,0.081,0.0807,0.0805,0.0777,0.0771,0.0765,0,0,0,0,0,0,0.0538,0.0575,0.0563,0.072,0.0758,0.0894,0.0887,0.0898,0.0896,0.089,0.0875,0.0868,0.089,0.0855,0.0855,0.0817,0.0846,0.0809,0.0807,0.0805,0.0775,0.077,0.0765,0,0,0,0,0,0.0548,0.0578,0.0828,0.0719,0.0752,0.0823,0.0883,0.0891,0.0865,0.0914,0.0906,0.0877,0.0893,0.0887,0.0855,0.0816,0.0846,0.0846,0.0808,0.0806,0.0804,0.0772,0,0,0,0,0,0,0.0556,0.058,0.0835,0.0847,0.068,0.0813,0.0833,0.0886,0.0884,0.0884,0.0921,0.0916,0.0896,0.0891,0.0887,0.0815,0.0846,0.0846,0.0846,0.0806,0.0805,0.0804,0,0,0,0,0,0,0.0565,0.0589,0.0841,0.079,0.0796,0.0804,0.0821,0.0833,0.0878,0.0887,0.0888,0.0918,0.0853,0.0894,0.0891,0.0914,0.0846,0.0846,0.0846,0.0846,0.0805,0.0804,0,0,0,0,0,0,0.0576,0.0597,0.0786,0.0791,0.0796,0.0928,0.0808,0.0939,0.0944,0.0882,0.0935,0.093,0.0854,0.0853,0.0894,0.0919,0.0915,0.0846,0.0846,0.0846,0.0846,0,0,0,0,0,0,0,0.0585,0.0432,0.0771,0.0792,0.0796,0.096,0.0962,0.0965,0.0944,0.094,0.0936,0.0932,0.0846,0.0846,0.0846,0.0923,0,0,0.0846,0.0846,0,0,0,0,0,0,0,0,0.0424,0.043,0.0771,0.0774,0.0777,0.096,0.0962,0.0964,0.0943,0.094,0.0937,0.0934,0.0846,0.0846,0.0846,0,0,0,0,0,0,0,0,0,0,0,0,0,0,0,0.0772,0.0774,0,0.096,0.0962,0.0964,0.0942,0.094,0.0937,0.0935,0.0846,0.0846,0.0846,0,0,0,0,0,0,0,0,0,0,0,0,0,0,0,0,0,0,0,0,0,0,0,0,0,0,0,0,0,0,0,0,0,0,0,0,0,0,0,0,0,0,0,0,0,0,0,0,0,0,0,0,0,0,0,0,0,0,0,0,0,0,0,0,0,0,0,0,0]}]],[[{"header":{"parameterUnit":"kt","parameterCategory":2,"dx":1,"dy":1,"la1":30.253999710083008,"la2":30.299108505249023,"lo1":-89.0895004272461,"lo2":-89.04439544677734,"nx":28,"ny":28,"refTime":"2022-09-20T15:00:00:Z","depth":"4","parameterNumber":2,"parameterNumberName":"U-component_of_CURRENTS"},"data":[-0.0786,-0.0821,-0.0817,-0.0743,-0.0698,-0.0625,-0.0541,-0.0431,-0.0346,-0.0185,-0.0218,-0.0107,-0.0208,-0.0079,-0.0243,-0.0274,-0.0354,-0.0482,-0.0482,-0.0628,-0.0636,-0.0643,-0.0331,0,0,0,0,0,-0.0771,-0.0786,-0.0804,-0.0748,-0.0725,-0.0665,-0.0549,-0.0438,-0.0262,-0.0174,-0.0026,-0.0103,-0.0124,-0.0222,-0.0248,-0.0423,-0.054,-0.0467,-0.0591,-0.0633,-0.0642,-0.0335,0,0,0,0,0,0,-0.0765,-0.0789,-0.0813,-0.0762,-0.0719,-0.0621,-0.0501,-0.0362,-0.0209,0.0017,-0.0054,-0.0019,-0.0004,-0.0111,-0.0437,-0.0516,-0.0428,-0.0442,-0.046,-0.047,-0.02,-0.0092,-0.024,0,0,0,0,0,-0.0735,-0.076,-0.0764,-0.0738,-0.066,-0.0557,-0.0391,-0.031,-0.0083,0.0022,0.0097,0.0135,0.001,-0.0098,-0.0333,-0.0608,-0.0688,-0.0823,-0.0824,-0.052,-0.0472,-0.0567,-0.0557,-0.0674,-0.0675,-0.0676,-0.0676,0,-0.0738,-0.0729,-0.071,-0.0693,-0.0653,-0.0468,-0.036,-0.0124,-0.006,0.0114,0.0089,0.0149,0.018,-0.0165,-0.0327,-0.0642,-0.0675,-0.0848,-0.0524,-0.0482,-0.058,-0.0567,-0.0555,-0.0683,-0.0683,-0.0682,-0.0681,0,-0.0745,-0.075,-0.0732,-0.0642,-0.0584,-0.0472,-0.0247,-0.0153,0.0054,0.0153,0.0246,0.0327,0.0241,0.0074,-0.023,-0.0299,-0.0572,-0.0689,-0.0727,-0.0843,-0.0576,-0.056,-0.0694,-0.0692,-0.069,-0.0688,-0.0686,0,-0.0777,-0.0754,-0.0736,-0.0717,-0.0595,-0.0482,-0.0302,-0.0186,-0.002,0.0063,0.025,0.0276,0.0304,0.0121,-0.0051,-0.025,-0.0362,-0.0318,-0.0428,-0.0404,-0.0393,-0.0549,-0.0553,-0.0482,-0.0479,-0.0476,-0.0473,0,-0.0825,-0.0815,-0.0767,-0.0753,-0.0669,-0.0563,-0.0441,-0.0277,-0.0175,0.0022,0.0121,0.0213,0.029,0.0158,-0.0001,0.0089,-0.0302,-0.0282,-0.038,-0.0382,-0.0533,-0.0542,-0.047,-0.0469,-0.0468,-0.0467,-0.0466,0,-0.089,-0.0889,-0.0843,-0.0765,-0.0741,-0.0663,-0.047,-0.0364,-0.0227,-0.0106,0.0056,0.0121,0.022,0.0238,0.0097,0.0206,0.0048,-0.0096,-0.0118,-0.0102,-0.026,-0.0616,-0.0464,-0.0461,-0.0459,-0.0457,-0.0455,0,-0.0923,-0.0921,-0.0916,-0.0856,-0.0832,-0.0781,-0.0654,-0.0554,-0.0422,-0.0289,-0.0203,-0.0048,0.0035,0.016,0.0164,0.0038,-0.0023,0.0105,-0.0354,-0.037,-0.0289,-0.012,-0.0021,-0.0423,-0.0427,-0.043,-0.0432,0,-0.0945,-0.099,-0.0991,-0.0975,-0.0937,-0.0908,-0.079,-0.0688,-0.0606,-0.0436,-0.0295,-0.0114,-0.0038,-0.0017,0.0004,-0.0016,-0.0004,-0.0053,-0.0065,-0.0246,-0.0241,-0.0108,-0.0116,-0.002,-0.002,-0.002,-0.041,0,-0.0981,-0.0998,-0.1005,-0.0995,-0.0967,-0.0963,-0.0905,-0.0834,-0.0721,-0.0651,-0.0486,-0.0445,-0.0329,-0.0274,-0.0256,-0.0156,-0.0247,-0.0313,-0.0453,-0.0289,-0.0486,-0.0502,-0.0395,-0.04,-0.0405,-0.0409,0,0,-0.0989,-0.1004,-0.1039,-0.1043,-0.1019,-0.1048,-0.1014,-0.0985,-0.0933,-0.0868,-0.0822,-0.0647,-0.0663,-0.0577,-0.0429,-0.0471,-0.0556,-0.0423,-0.0343,-0.0334,-0.0327,-0.0506,-0.0516,-0.0417,-0.0419,-0.042,-0.0422,0,-0.0992,-0.1022,-0.1033,-0.1046,-0.1068,-0.1054,-0.106,-0.1033,-0.0999,-0.0892,-0.0914,-0.0844,-0.075,-0.0739,-0.0726,-0.0539,-0.0682,-0.0467,-0.0279,-0.0378,-0.0363,-0.0351,-0.0522,-0.0528,-0.0433,-0.0432,-0.0432,0,-0.0994,-0.1009,-0.1021,-0.1048,-0.1066,-0.1051,-0.1092,-0.111,-0.1057,-0.114,-0.1036,-0.1015,-0.1036,-0.0921,-0.0893,-0.0953,-0.0839,-0.0811,-0.0788,-0.0794,-0.0908,-0.0888,-0.087,-0.1116,-0.1117,-0.1119,0,0,-0.0993,-0.1012,-0.1031,-0.1047,-0.1059,-0.1077,-0.109,-0.1104,-0.1116,-0.1129,-0.1112,-0.11,-0.1071,-0.1064,-0.106,-0.0989,-0.1131,-0.0887,-0.0855,-0.0828,-0.0818,-0.0924,-0.0903,-0.1125,-0.1125,-0.1125,0,0,-0.0991,-0.1015,-0.1028,-0.1045,-0.1066,-0.108,-0.1098,-0.1108,-0.1128,-0.1132,-0.1174,-0.1187,-0.1124,-0.1177,-0.1248,-0.1044,-0.1184,-0.1173,-0.0984,-0.0946,-0.0914,-0.0898,-0.1321,0,0,0,0,0,-0.0996,-0.1007,-0.1018,-0.1023,-0.105,-0.1067,-0.1072,-0.1104,-0.1114,-0.1134,-0.1141,-0.1201,-0.1187,-0.1253,-0.1266,-0.1121,-0.1201,-0.1188,-0.1175,-0.0917,-0.0876,-0.084,0,0,0,0,0,0,-0.0998,-0.1003,-0.1017,-0.1029,-0.1035,-0.1067,-0.1081,-0.109,-0.1115,-0.1122,-0.1189,-0.1202,-0.1235,-0.1252,-0.1262,-0.112,-0.1318,-0.1196,-0.1184,-0.1174,-0.0903,-0.0869,-0.084,0,0,0,0,0,-0.1,-0.1004,-0.1045,-0.1029,-0.1034,-0.1072,-0.1083,-0.1091,-0.1118,-0.1165,-0.118,-0.1146,-0.1232,-0.1246,-0.1259,-0.1111,-0.1311,-0.1315,-0.1188,-0.1179,-0.1171,-0.0886,0,0,0,0,0,0,-0.1001,-0.101,-0.1047,-0.1049,-0.1044,-0.1073,-0.1081,-0.1091,-0.1163,-0.1174,-0.1124,-0.1128,-0.123,-0.1241,-0.1251,-0.1099,-0.1306,-0.131,-0.1312,-0.1181,-0.1174,-0.1168,0,0,0,0,0,0,-0.1007,-0.1011,-0.1048,-0.1065,-0.107,-0.1074,-0.108,-0.1111,-0.1165,-0.1118,-0.1123,-0.1125,-0.1234,-0.1238,-0.1246,-0.1291,-0.1302,-0.1305,-0.1308,-0.1309,-0.1176,-0.117,0,0,0,0,0,0,-0.1009,-0.1013,-0.1065,-0.1068,-0.1073,-0.1101,-0.1104,-0.1144,-0.1139,-0.1116,-0.1144,-0.1146,-0.1231,-0.1239,-0.1242,-0.1283,-0.1289,-0.1302,-0.1305,-0.1306,-0.1307,0,0,0,0,0,0,0,-0.1011,-0.0983,-0.1032,-0.1071,-0.1075,-0.107,-0.107,-0.1071,-0.114,-0.1142,-0.1144,-0.1145,-0.1283,-0.1286,-0.129,-0.1276,0,0,-0.1302,-0.1304,0,0,0,0,0,0,0,0,-0.0982,-0.0983,-0.1032,-0.1032,-0.1033,-0.107,-0.107,-0.1071,-0.114,-0.1142,-0.1143,-0.1145,-0.1284,-0.1287,-0.129,0,0,0,0,0,0,0,0,0,0,0,0,0,0,0,-0.1032,-0.1032,0,-0.107,-0.107,-0.1071,-0.114,-0.1142,-0.1143,-0.1144,-0.1284,-0.1287,-0.1289,0,0,0,0,0,0,0,0,0,0,0,0,0,0,0,0,0,0,0,0,0,0,0,0,0,0,0,0,0,0,0,0,0,0,0,0,0,0,0,0,0,0,0,0,0,0,0,0,0,0,0,0,0,0,0,0,0,0,0,0,0,0,0,0,0,0,0,0,0]}],[{"header":{"parameterUnit":"kt","parameterCategory":2,"dx":1,"dy":1,"la1":30.253999710083008,"la2":30.299108505249023,"lo1":-89.0895004272461,"lo2":-89.04439544677734,"nx":28,"ny":28,"refTime":"2022-09-20T15:00:00:Z","depth":"4","parameterNumber":3,"parameterNumberName":"V-component_of_CURRENTS"},"data":[0.0925,0.11,0.1165,0.1395,0.1626,0.1766,0.1803,0.1732,0.1476,0.1461,0.1224,0.1267,0.0884,0.0964,0.0551,0.0517,0.0679,0.0282,0.0282,0.057,0.0588,0.0603,0.0603,0,0,0,0,0,0.0972,0.1022,0.1304,0.1647,0.1922,0.2128,0.223,0.2235,0.2155,0.1718,0.1719,0.126,0.0919,0.0667,0.0566,0.0517,0.0538,0.0405,0.0659,0.0581,0.06,0.0594,0,0,0,0,0,0,0.0988,0.106,0.1339,0.1809,0.2165,0.2233,0.2415,0.2271,0.2177,0.1897,0.1624,0.1259,0.1089,0.0805,0.0601,0.0535,0.0527,0.0617,0.0633,0.065,0.0647,0.0829,0.0449,0,0,0,0,0,0.104,0.1192,0.1348,0.1901,0.2292,0.2458,0.2782,0.2706,0.2575,0.2585,0.1973,0.1717,0.1227,0.0906,0.0823,0.063,0.082,0.0709,0.072,0.0773,0.0923,0.0852,0.0878,0.0673,0.0675,0.0677,0.0678,0,0.1104,0.1212,0.1655,0.1899,0.2203,0.2656,0.2894,0.3055,0.2905,0.2601,0.234,0.2018,0.1741,0.1146,0.0972,0.0776,0.0739,0.0758,0.0815,0.0957,0.0875,0.0898,0.0919,0.0693,0.0692,0.0691,0.0689,0,0.1136,0.1279,0.1473,0.1883,0.2144,0.2431,0.2835,0.2859,0.2945,0.2743,0.2725,0.2355,0.1947,0.1767,0.1362,0.1285,0.0987,0.0897,0.1246,0.1155,0.0938,0.0953,0.0718,0.0713,0.0708,0.0704,0.0701,0,0.1187,0.1299,0.1625,0.1725,0.2105,0.2257,0.2576,0.2726,0.2747,0.2609,0.2594,0.2331,0.2157,0.1872,0.1727,0.1371,0.1354,0.1172,0.1062,0.1278,0.1293,0.1181,0.1186,0.1145,0.1146,0.1146,0.1147,0,0.1169,0.132,0.1506,0.1561,0.1811,0.2066,0.2314,0.2452,0.2456,0.2491,0.2442,0.23,0.2192,0.2006,0.1743,0.1781,0.1362,0.1314,0.1134,0.113,0.1186,0.119,0.1147,0.1148,0.1148,0.1148,0.1148,0,0.1145,0.1228,0.1399,0.1592,0.1642,0.1896,0.2157,0.2264,0.2305,0.2348,0.2334,0.2249,0.2102,0.211,0.1787,0.1861,0.1752,0.1577,0.1564,0.138,0.1261,0.1465,0.1442,0.1445,0.1447,0.1449,0.1451,0,0.1136,0.1217,0.126,0.1449,0.1528,0.1679,0.1821,0.1971,0.2099,0.218,0.2078,0.2094,0.2101,0.2121,0.1999,0.1726,0.1681,0.1768,0.1419,0.1412,0.1348,0.1286,0.1558,0.1481,0.1477,0.1475,0.1473,0,0.1086,0.114,0.1153,0.1227,0.1406,0.1484,0.1664,0.179,0.1882,0.2082,0.2107,0.2069,0.2093,0.2014,0.1902,0.1779,0.1724,0.1736,0.1722,0.1765,0.1457,0.1342,0.1313,0.1577,0.1573,0.157,0.1494,0,0.1036,0.1097,0.1116,0.1212,0.1282,0.1403,0.1502,0.1672,0.1864,0.1914,0.1972,0.1943,0.1927,0.1883,0.1828,0.1715,0.1726,0.1591,0.1574,0.156,0.1532,0.1516,0.1655,0.1652,0.1649,0.1647,0,0,0.1007,0.1047,0.1045,0.1066,0.1134,0.125,0.1344,0.1403,0.1601,0.1646,0.1763,0.1768,0.1755,0.1614,0.1657,0.1622,0.1575,0.174,0.1567,0.156,0.1552,0.1525,0.1513,0.1642,0.1641,0.164,0.164,0,0.0963,0.1,0.1033,0.1043,0.113,0.1194,0.1241,0.1364,0.144,0.1628,0.1582,0.1605,0.1722,0.1622,0.156,0.1595,0.1571,0.1611,0.1738,0.1551,0.1547,0.1542,0.1517,0.1508,0.1633,0.1634,0.1634,0,0.0918,0.0943,0.0972,0.1002,0.1018,0.1082,0.1057,0.1173,0.1269,0.1268,0.1497,0.1488,0.1399,0.1479,0.1523,0.1513,0.1546,0.1583,0.1592,0.1628,0.1432,0.1428,0.1424,0.1481,0.1482,0.1482,0,0,0.0892,0.0933,0.0947,0.0996,0.1002,0.1031,0.1055,0.1142,0.1201,0.1244,0.1365,0.142,0.1383,0.1451,0.1472,0.1553,0.1473,0.1576,0.1583,0.159,0.163,0.1438,0.1433,0.1485,0.1485,0.1485,0,0,0.0881,0.0916,0.0937,0.0987,0.1004,0.1011,0.1044,0.1082,0.116,0.1256,0.1276,0.1305,0.1415,0.1406,0.1432,0.1496,0.1444,0.1443,0.1577,0.1585,0.1591,0.1644,0.1456,0,0,0,0,0,0.0867,0.0902,0.092,0.0933,0.0979,0.0989,0.0993,0.1048,0.1104,0.1125,0.1217,0.1257,0.1402,0.1427,0.1448,0.1516,0.1515,0.151,0.1505,0.1689,0.1697,0.1705,0,0,0,0,0,0,0.0872,0.0885,0.0919,0.0927,0.0939,0.0987,0.1021,0.1033,0.1104,0.1118,0.1231,0.1256,0.1289,0.1421,0.1438,0.1503,0.145,0.1513,0.1508,0.1504,0.1692,0.1699,0.1705,0,0,0,0,0,0.0876,0.0886,0.0961,0.0926,0.0936,0.1004,0.1024,0.1035,0.1101,0.1168,0.1194,0.1158,0.1283,0.1309,0.1432,0.1494,0.1438,0.1444,0.151,0.1506,0.1503,0.1695,0,0,0,0,0,0,0.0879,0.0871,0.0963,0.0966,0.0964,0.1005,0.1017,0.1036,0.1152,0.1174,0.1092,0.1101,0.1279,0.13,0.1319,0.1489,0.1428,0.1435,0.1439,0.1507,0.1505,0.1502,0,0,0,0,0,0,0.0867,0.0874,0.0964,0.1009,0.1018,0.1005,0.1016,0.1072,0.1157,0.1069,0.1079,0.1096,0.1307,0.1293,0.1309,0.1386,0.1421,0.1427,0.1431,0.1434,0.1505,0.1503,0,0,0,0,0,0,0.087,0.0876,0.1007,0.1014,0.1022,0.1059,0.1059,0.1135,0.1103,0.1066,0.1114,0.1119,0.1302,0.1315,0.1301,0.137,0.1382,0.1421,0.1425,0.1428,0.143,0,0,0,0,0,0,0,0.0873,0.083,0.0953,0.1019,0.1026,0.1002,0.1002,0.1002,0.1104,0.1109,0.1113,0.1117,0.1385,0.1392,0.1399,0.1357,0,0,0.142,0.1423,0,0,0,0,0,0,0,0,0.0828,0.083,0.0953,0.0954,0.0955,0.1002,0.1002,0.1002,0.1105,0.1108,0.1112,0.1115,0.1387,0.1393,0.1398,0,0,0,0,0,0,0,0,0,0,0,0,0,0,0,0.0953,0.0954,0,0.1002,0.1002,0.1002,0.1105,0.1108,0.1111,0.1114,0.1389,0.1393,0.1398,0,0,0,0,0,0,0,0,0,0,0,0,0,0,0,0,0,0,0,0,0,0,0,0,0,0,0,0,0,0,0,0,0,0,0,0,0,0,0,0,0,0,0,0,0,0,0,0,0,0,0,0,0,0,0,0,0,0,0,0,0,0,0,0,0,0,0,0,0]}]]]